Temp
60 57 57 59 50 44 39 44 45 50 50 51 53 51 52 49 52 46 58 61 62 62 66 66 70 72 72 72 72 72 74 75 75 76 76 76 75 75 76 75 75 75 76 77 77 77 76 75 74
57 63 59 51 44 38 41 43 47 49 52 53 54 51 51 46 53 55 55 60 60 62 64 64 68 71 71 71 71 71 71 73 75 75 76 75 75 75 75 75 75 75 77 77 77 77 76 75 74
60 61 55 46 37 39 41 46 46 51 53 52 49 51 48 48 52 53 56 59 59 59 60 63 68 69 69 69 70 70 70 70 71 73 75 75 75 75 75 75 75 75 76 77 77 76 75 74 74
58 57 52 45 40 45 44 45 49 49 52 55 50 47 49 54 54 54 58 58 57 57 58 61 66 67 68 68 68 69 69 70 69 69 70 73 75 74 74 74 74 74 75 76 77 75 74 73 73
55 51 44 39 41 44 46 48 49 50 48 48 49 46 47 53 55 56 55 57 55 55 56 57 63 64 65 66 66 67 67 68 69 67 67 68 68 72 73 73 73 74 74 76 76 74 74 74 72
52 49 41 39 41 45 46 49 49 47 49 48 46 45 46 53 53 53 54 53 54 53 55 56 58 61 62 63 64 64 65 65 66 67 67 66 66 67 69 73 73 73 74 75 75 74 73 72 71
50 46 41 38 41 44 49 51 47 48 46 48 51 44 45 49 52 53 51 51 52 53 53 52 53 55 57 59 61 62 63 63 63 64 65 65 64 64 65 68 72 72 73 73 73 72 71 72 71
49 48 39 38 42 44 46 47 48 48 47 51 50 44 43 49 53 52 50 50 49 51 51 50 51 51 51 51 57 60 61 61 61 61 61 62 62 63 63 64 69 71 71 72 72 71 71 70 69
51 44 39 42 43 43 46 45 49 50 47 47 48 47 49 52 52 48 47 49 49 52 50 50 50 50 50 52 55 56 57 58 58 57 58 58 60 62 60 63 66 70 70 70 70 71 70 68 67
48 41 45 45 44 43 46 46 46 45 44 45 45 48 51 49 46 45 43 45 46 47 49 50 48 49 49 54 51 50 52 51 52 52 53 55 55 58 61 58 62 65 67 68 69 69 67 64 63
45 44 45 47 48 48 47 45 47 43 44 47 46 48 49 47 46 45 45 45 44 45 47 49 49 48 47 49 49 47 48 48 49 50 51 52 53 54 59 60 62 63 60 64 66 67 64 60 60
43 47 48 49 49 48 45 46 45 46 47 49 50 49 48 47 47 46 46 46 45 45 47 48 48 47 47 48 48 49 48 47 47 48 50 50 49 51 54 58 62 62 63 63 64 62 59 58 59
44 45 48 48 48 47 48 46 45 45 49 48 49 50 47 46 46 46 47 46 46 45 46 47 47 47 49 48 49 48 48 47 47 48 49 50 49 49 53 57 60 63 63 63 62 61 59 57 56
46 47 47 47 47 47 45 43 43 46 45 47 48 47 46 46 47 45 46 46 46 47 46 46 47 47 48 48 48 48 48 48 48 48 50 50 50 49 51 55 58 62 62 61 61 61 59 56 56
47 44 45 44 45 45 44 43 41 45 45 45 45 45 46 46 46 46 45 45 44 46 45 46 47 49 47 47 48 50 51 54 53 52 52 52 50 49 50 55 56 61 61 60 59 59 59 56 56
42 41 38 43 45 45 44 39 46 44 44 44 43 44 44 45 47 45 45 44 45 44 44 45 49 46 47 47 48 50 52 53 52 53 53 52 51 50 50 54 55 59 61 61 60 58 57 57 55
38 35 34 41 45 43 41 39 45 43 42 43 42 43 44 44 45 45 45 43 44 43 43 44 45 44 46 47 48 51 52 51 52 53 53 52 53 51 50 54 55 56 60 60 60 58 57 56 56
34 32 36 36 41 40 38 39 46 45 42 43 42 42 42 43 45 46 45 44 43 42 43 43 44 44 46 47 50 51 51 51 52 52 52 53 53 53 50 52 55 55 60 60 59 58 57 56 56
39 36 35 39 42 37 38 39 44 46 41 42 41 40 41 42 44 45 44 41 42 42 42 42 42 45 45 47 46 47 47 49 50 51 53 53 53 54 50 50 55 54 60 60 60 58 56 54 55
38 35 34 39 40 38 36 38 45 42 40 41 41 39 41 41 42 43 41 40 40 39 41 41 43 44 44 47 47 47 48 49 50 51 52 53 54 53 50 51 54 58 59 58 58 57 55 54 55
36 34 32 36 39 36 33 34 38 39 39 41 40 41 42 42 41 42 41 39 39 39 39 41 42 44 46 47 47 48 49 51 51 50 51 52 53 53 51 55 55 59 59 57 57 57 57 54 55
35 39 37 36 34 27 34 26 32 35 38 39 39 39 39 41 41 42 40 38 39 40 39 40 42 44 46 47 46 45 46 46 50 53 53 53 54 53 55 56 58 60 58 57 58 59 57 57 54
38 40 37 35 32 29 28 23 32 33 35 36 38 39 39 40 40 40 39 39 40 40 39 39 42 43 46 46 46 45 46 48 50 53 52 50 53 55 56 58 60 59 58 59 58 58 57 58 56
42 38 36 32 30 22 24 24 30 29 36 36 38 40 40 39 39 39 39 38 39 39 39 39 41 43 45 45 45 45 45 46 47 51 53 53 54 57 58 58 58 58 59 59 58 58 57 57 57
38 34 24 23 21 26 27 25 33 39 40 40 41 40 39 38 37 37 37 37 38 38 38 40 40 41 42 44 44 44 45 46 46 48 50 52 53 53 54 56 56 57 57 56 58 57 56 56 55
34 35 27 23 23 27 28 25 36 39 39 40 41 40 38 37 37 37 37 37 37 38 38 39 40 41 43 43 43 44 44 45 45 46 48 49 50 52 53 53 53 53 53 53 53 53 53 52 51
34 31 35 28 18 22 29 34 40 39 39 36 37 37 37 37 36 37 36 36 37 37 38 38 40 43 41 43 43 43 43 43 43 45 46 47 48 49 49 50 50 50 50 51 50 49 49 49 48
36 39 30 26 21 20 29 31 35 39 39 38 37 36 36 36 36 36 36 35 36 36 37 39 41 40 41 43 43 43 43 43 44 44 43 44 46 47 47 48 48 48 48 48 48 46 46 45 44
33 32 31 32 29 27 24 35 41 41 40 39 39 39 37 36 36 36 36 35 36 36 37 38 40 40 42 43 43 43 42 43 43 43 43 43 44 45 45 46 46 45 45 46 45 44 44 42 41
35 34 33 29 27 26 28 32 43 41 38 40 41 40 38 38 37 36 36 35 35 36 37 37 41 40 43 42 42 43 43 43 42 42 42 43 43 43 44 44 43 43 43 45 44 42 42 41 39
MSLP
1012.19 1012.14 1012.31 1012.68 1014.59 1014.92 1014.23 1013.76 1013.30 1013.03 1013.10 1013.17 1013.25 1013.90 1014.15 1014.70 1015.00 1016.02 1015.65 1015.81 1015.53 1015.31 1014.91 1014.68 1014.37 1014.06 1013.82 1013.67 1013.47 1013.23 1013.02 1012.88 1012.83 1012.84 1012.87 1012.89 1012.93 1012.99 1012.99 1013.12 1013.36 1013.50 1013.59 1013.71 1013.96 1014.09 1014.44 1014.80 1015.05
1012.35 1012.32 1012.95 1013.96 1015.02 1015.46 1014.46 1013.59 1013.26 1013.12 1013.41 1013.57 1013.92 1014.37 1014.71 1015.22 1015.41 1015.62 1015.77 1015.73 1015.55 1015.24 1015.02 1014.91 1014.61 1014.31 1014.11 1013.93 1013.79 1013.58 1013.33 1012.95 1012.70 1012.55 1012.46 1012.61 1012.71 1012.78 1012.90 1012.98 1013.09 1013.14 1013.25 1013.42 1013.74 1013.96 1014.08 1014.53 1014.94
1012.54 1012.88 1013.68 1014.61 1015.49 1015.14 1014.59 1013.52 1013.26 1013.25 1013.56 1013.80 1014.58 1014.90 1015.43 1015.67 1015.71 1015.91 1016.05 1015.83 1015.55 1015.48 1015.35 1015.15 1014.87 1014.64 1014.44 1014.24 1014.04 1013.89 1013.67 1013.37 1012.99 1012.63 1012.40 1012.27 1012.43 1012.54 1012.61 1012.75 1012.95 1013.09 1013.02 1013.32 1013.47 1013.81 1014.16 1014.43 1014.69
1012.95 1013.51 1014.74 1014.82 1015.28 1014.48 1014.13 1013.51 1013.40 1013.48 1013.69 1013.97 1014.63 1015.43 1015.79 1015.76 1015.86 1016.05 1016.03 1015.89 1015.86 1015.82 1015.59 1015.36 1015.10 1014.87 1014.68 1014.50 1014.30 1014.10 1013.82 1013.52 1013.29 1013.08 1012.63 1012.32 1012.09 1012.25 1012.35 1012.57 1012.73 1013.01 1013.10 1013.09 1013.31 1013.69 1014.12 1014.35 1014.82
1013.41 1014.18 1014.97 1015.05 1014.68 1014.06 1013.83 1013.60 1013.52 1013.77 1013.99 1014.34 1014.63 1015.30 1015.81 1015.83 1015.85 1016.06 1016.12 1016.14 1016.10 1016.05 1015.75 1015.59 1015.35 1015.16 1014.91 1014.71 1014.49 1014.26 1013.98 1013.71 1013.33 1013.19 1012.94 1012.56 1012.34 1012.08 1012.04 1012.24 1012.41 1012.68 1012.89 1013.09 1013.29 1013.66 1013.91 1014.21 1014.94
1014.13 1014.74 1015.33 1015.21 1014.43 1013.85 1013.56 1013.51 1013.69 1014.01 1014.22 1014.54 1014.88 1015.47 1015.85 1015.82 1015.92 1016.20 1016.26 1016.30 1016.27 1016.19 1015.88 1015.75 1015.62 1015.37 1015.10 1014.88 1014.65 1014.35 1014.07 1013.77 1013.52 1013.20 1013.00 1012.80 1012.61 1012.31 1012.02 1011.91 1012.12 1012.42 1012.55 1012.87 1013.13 1013.66 1014.08 1014.30 1015.00
1014.25 1015.02 1014.99 1014.75 1014.31 1013.84 1013.27 1013.37 1013.85 1014.07 1014.33 1014.51 1014.84 1015.47 1015.92 1015.98 1015.94 1016.20 1016.33 1016.33 1016.30 1016.13 1016.03 1015.89 1015.71 1015.51 1015.34 1015.06 1014.70 1014.33 1014.01 1013.74 1013.46 1013.17 1012.93 1012.66 1012.52 1012.39 1012.02 1011.76 1011.70 1011.91 1012.20 1012.56 1012.87 1013.43 1013.86 1014.35 1014.85
1014.18 1014.87 1015.20 1014.54 1014.37 1013.69 1013.47 1013.59 1013.75 1014.12 1014.29 1014.62 1014.72 1015.41 1015.76 1015.68 1015.98 1016.24 1016.38 1016.43 1016.33 1016.22 1016.04 1015.98 1015.73 1015.57 1015.35 1015.07 1014.70 1014.37 1014.11 1013.85 1013.53 1013.27 1012.93 1012.60 1012.27 1012.04 1011.84 1011.62 1011.33 1011.53 1011.91 1012.22 1012.70 1013.24 1013.70 1014.14 1014.77
1013.76 1015.06 1015.34 1014.40 1014.26 1013.60 1013.84 1013.85 1013.96 1014.02 1014.32 1014.74 1015.03 1015.34 1015.47 1015.72 1016.07 1016.29 1016.44 1016.40 1016.27 1016.13 1015.98 1015.85 1015.80 1015.61 1015.40 1015.11 1014.71 1014.45 1014.11 1013.83 1013.46 1013.27 1013.05 1012.64 1012.13 1011.79 1011.59 1011.23 1011.02 1010.99 1011.56 1012.00 1012.42 1012.84 1013.50 1014.02 1014.70
1013.99 1014.98 1014.63 1014.01 1013.79 1013.84 1013.97 1014.15 1014.07 1014.29 1014.73 1015.02 1015.28 1015.44 1015.59 1015.82 1016.07 1016.29 1016.51 1016.56 1016.62 1016.28 1016.00 1015.86 1015.70 1015.62 1015.40 1015.02 1014.57 1014.25 1013.88 1013.52 1013.17 1012.97 1012.74 1012.47 1012.16 1011.84 1011.35 1011.07 1010.64 1009.97 1011.35 1011.61 1012.10 1012.53 1013.24 1013.93 1014.64
1014.02 1014.42 1014.34 1013.88 1013.83 1013.98 1014.17 1014.20 1014.19 1014.63 1014.89 1014.82 1014.96 1015.21 1015.69 1015.95 1016.16 1016.32 1016.41 1016.53 1016.37 1016.21 1016.02 1015.71 1015.75 1015.49 1015.26 1014.72 1014.21 1013.90 1013.52 1013.16 1012.79 1012.62 1012.50 1012.28 1012.02 1011.69 1011.04 1010.80 1010.30 1010.15 1010.64 1011.46 1012.06 1012.37 1013.18 1013.90 1014.61
1014.07 1014.12 1014.11 1013.98 1014.07 1014.25 1014.35 1014.39 1014.57 1014.71 1014.27 1014.25 1014.58 1014.93 1015.47 1015.83 1015.97 1016.16 1016.23 1016.24 1016.22 1016.20 1015.87 1015.67 1015.65 1015.31 1014.78 1014.30 1013.93 1013.48 1013.19 1012.85 1012.60 1012.37 1012.17 1012.07 1011.93 1011.55 1011.13 1010.53 1009.99 1010.01 1009.70 1010.23 1011.75 1012.36 1013.28 1013.94 1014.47
1013.99 1014.09 1014.08 1014.04 1014.19 1014.37 1014.47 1014.63 1014.89 1014.22 1014.04 1014.41 1014.78 1015.06 1015.43 1015.74 1015.92 1016.00 1016.02 1016.02 1016.06 1016.03 1015.90 1015.66 1015.47 1015.03 1014.40 1014.07 1013.49 1013.08 1012.75 1012.51 1012.20 1012.03 1011.83 1011.56 1011.60 1011.33 1010.98 1010.33 1009.81 1009.43 1009.86 1010.34 1011.47 1012.23 1013.36 1014.13 1014.63
1014.13 1014.18 1013.97 1013.97 1014.27 1014.41 1014.67 1014.87 1015.09 1013.77 1013.69 1014.43 1014.82 1015.09 1015.34 1015.62 1015.76 1015.85 1015.88 1015.91 1015.95 1015.98 1015.92 1015.54 1015.19 1014.68 1014.09 1013.65 1013.09 1012.63 1012.14 1011.88 1011.72 1011.47 1011.34 1011.20 1011.04 1011.04 1010.81 1010.28 1009.65 1009.02 1009.57 1010.66 1011.52 1012.33 1013.34 1014.24 1014.71
1014.21 1014.09 1013.88 1014.02 1014.29 1014.53 1014.80 1014.78 1014.25 1013.63 1014.01 1014.51 1014.83 1015.05 1015.22 1015.36 1015.54 1015.56 1015.63 1015.74 1015.78 1015.77 1015.69 1015.45 1014.98 1014.24 1013.83 1013.39 1012.86 1012.36 1011.76 1011.20 1010.96 1010.75 1010.64 1010.60 1010.64 1010.55 1010.53 1010.09 1009.79 1008.87 1009.40 1009.92 1011.41 1012.86 1013.24 1014.38 1015.04
1014.63 1014.71 1014.94 1014.37 1014.55 1014.83 1015.10 1014.24 1013.24 1013.35 1014.05 1014.51 1014.78 1015.08 1015.19 1015.12 1015.15 1015.24 1015.30 1015.44 1015.60 1015.66 1015.62 1015.23 1014.76 1014.11 1013.58 1013.16 1012.60 1011.97 1011.31 1010.91 1010.54 1010.21 1010.12 1010.04 1010.04 1010.12 1010.19 1009.89 1009.72 1009.06 1009.59 1010.34 1011.61 1012.25 1013.70 1014.43 1015.22
1015.63 1015.78 1015.64 1014.90 1014.81 1015.09 1015.43 1014.31 1013.35 1013.64 1014.15 1014.43 1014.69 1014.88 1015.07 1015.03 1015.01 1014.96 1015.03 1015.26 1015.46 1015.59 1015.53 1015.16 1014.63 1014.00 1013.34 1012.80 1012.31 1011.64 1011.04 1010.58 1010.11 1009.77 1009.57 1009.47 1009.54 1009.67 1009.89 1009.70 1009.50 1009.72 1009.85 1010.70 1011.47 1012.46 1013.51 1014.51 1015.49
1015.95 1016.11 1015.81 1015.72 1015.31 1015.49 1015.60 1014.22 1013.51 1013.67 1014.03 1014.03 1014.29 1014.49 1014.75 1014.86 1014.63 1014.69 1014.91 1015.24 1015.40 1015.54 1015.41 1015.13 1014.55 1013.77 1013.22 1012.67 1011.92 1011.38 1010.69 1009.97 1009.49 1009.31 1009.16 1009.01 1009.08 1009.15 1009.44 1009.53 1009.55 1009.49 1009.80 1010.44 1011.23 1012.36 1013.08 1014.29 1015.48
1015.66 1015.96 1015.99 1015.50 1015.50 1015.75 1015.16 1014.15 1012.74 1012.92 1013.12 1013.32 1013.55 1014.00 1014.23 1014.49 1014.38 1014.63 1014.94 1015.27 1015.41 1015.53 1015.37 1015.09 1014.40 1013.69 1013.29 1012.47 1011.79 1011.03 1010.32 1009.59 1009.00 1008.72 1008.50 1008.51 1008.72 1008.81 1009.01 1009.23 1009.42 1009.63 1009.23 1010.08 1011.14 1012.16 1012.90 1014.48 1015.52
1015.78 1016.03 1016.11 1015.65 1015.72 1016.13 1015.41 1013.47 1012.14 1011.91 1012.18 1012.44 1012.85 1013.34 1013.64 1014.24 1014.44 1014.73 1015.02 1015.30 1015.60 1015.60 1015.33 1015.00 1014.36 1013.79 1013.31 1012.51 1011.88 1011.27 1010.49 1009.42 1008.72 1008.30 1008.22 1008.20 1008.32 1008.47 1008.77 1008.99 1008.90 1008.38 1008.94 1010.09 1011.14 1011.89 1013.03 1014.34 1015.27
1015.82 1016.21 1016.44 1016.61 1016.27 1016.38 1016.26 1013.76 1012.14 1011.91 1011.86 1011.87 1012.15 1012.55 1013.13 1013.70 1014.31 1014.69 1015.12 1015.39 1015.63 1015.57 1015.49 1015.10 1014.37 1013.82 1013.08 1012.35 1011.69 1010.99 1010.19 1009.17 1008.33 1008.02 1007.91 1007.94 1008.07 1008.14 1008.67 1008.64 1008.69 1008.26 1009.10 1010.03 1011.19 1011.96 1012.62 1013.95 1015.21
1016.02 1015.92 1016.47 1016.95 1017.43 1017.79 1017.15 1016.17 1013.24 1012.11 1011.72 1011.63 1012.05 1012.62 1013.10 1013.71 1014.31 1014.63 1015.02 1015.39 1015.57 1015.50 1015.46 1015.09 1014.40 1013.79 1012.99 1012.35 1011.76 1011.24 1010.59 1009.61 1008.47 1007.51 1007.63 1007.73 1007.90 1008.15 1008.37 1008.35 1008.55 1008.55 1009.28 1010.09 1010.53 1011.70 1012.60 1013.32 1014.58
1015.94 1016.20 1016.86 1017.40 1017.94 1018.46 1018.05 1018.15 1012.88 1012.28 1011.58 1011.47 1012.05 1012.79 1013.34 1013.84 1014.20 1014.57 1014.94 1015.27 1015.31 1015.44 1015.47 1015.08 1014.40 1013.88 1013.03 1012.45 1011.95 1011.38 1010.66 1009.90 1008.93 1008.08 1007.86 1007.89 1008.00 1008.08 1008.20 1008.28 1008.72 1009.26 1009.84 1010.39 1011.00 1011.92 1012.60 1013.29 1013.89
1016.16 1016.72 1017.35 1017.99 1018.44 1018.76 1017.95 1017.76 1013.73 1012.39 1011.35 1011.31 1011.87 1012.79 1013.40 1013.96 1014.32 1014.74 1015.06 1015.28 1015.28 1015.43 1015.38 1014.98 1014.45 1013.97 1013.19 1012.55 1012.18 1011.75 1011.05 1010.34 1009.76 1008.79 1008.30 1008.18 1007.95 1007.96 1008.23 1008.61 1009.14 1009.77 1010.19 1010.66 1011.37 1012.23 1012.71 1013.37 1014.11
1016.51 1017.14 1017.98 1018.56 1018.94 1018.10 1017.58 1017.54 1012.61 1011.13 1010.96 1010.97 1011.47 1012.52 1013.35 1013.99 1014.41 1014.80 1015.11 1015.40 1015.28 1015.57 1015.42 1015.04 1014.57 1014.06 1013.45 1012.75 1012.51 1012.15 1011.61 1011.09 1010.74 1010.02 1009.30 1008.77 1008.67 1008.90 1009.07 1009.21 1009.72 1010.04 1010.51 1010.95 1011.61 1012.18 1012.62 1013.45 1014.21
1016.56 1016.87 1017.33 1017.90 1018.75 1017.79 1017.16 1015.28 1011.12 1010.17 1010.24 1010.67 1011.29 1012.07 1013.20 1013.96 1014.40 1014.80 1015.07 1015.46 1015.40 1015.61 1015.51 1015.12 1014.68 1014.31 1013.73 1013.05 1012.88 1012.58 1012.27 1011.78 1011.40 1011.05 1010.54 1010.10 1009.89 1009.61 1009.80 1010.06 1010.30 1010.56 1011.12 1011.42 1011.89 1012.61 1013.14 1013.73 1014.86
1016.61 1016.88 1016.68 1017.25 1018.75 1017.72 1014.97 1012.62 1010.12 1009.90 1010.13 1010.75 1011.44 1012.34 1013.19 1013.65 1014.36 1014.78 1015.16 1015.47 1015.53 1015.58 1015.64 1015.31 1014.75 1014.51 1013.99 1013.43 1013.20 1013.04 1012.77 1012.53 1012.06 1011.82 1011.51 1011.26 1010.94 1010.79 1010.82 1010.98 1011.13 1011.50 1011.80 1012.16 1012.54 1013.24 1013.47 1014.43 1015.44
1015.99 1016.27 1016.91 1017.30 1017.59 1016.60 1013.95 1012.53 1010.31 1009.50 1009.64 1010.51 1011.49 1012.21 1013.07 1013.57 1014.31 1014.79 1015.22 1015.48 1015.61 1015.40 1015.53 1015.37 1014.82 1014.73 1014.26 1013.78 1013.47 1013.32 1013.18 1013.11 1012.70 1012.35 1012.45 1012.40 1012.15 1011.90 1011.83 1011.82 1012.18 1012.49 1012.80 1013.09 1013.22 1013.82 1014.69 1015.19 1016.12
1016.19 1016.23 1016.48 1016.44 1016.05 1015.30 1014.06 1010.66 1008.80 1008.72 1008.98 1009.95 1010.83 1011.60 1012.59 1013.20 1013.91 1014.46 1014.96 1015.38 1015.52 1015.48 1015.37 1015.53 1015.05 1014.90 1014.51 1014.04 1013.84 1013.52 1013.58 1013.46 1013.40 1013.06 1012.97 1012.94 1013.00 1012.98 1012.71 1012.92 1013.16 1013.53 1013.80 1014.15 1014.23 1015.01 1015.79 1016.12 1016.99
1015.12 1015.30 1015.68 1015.78 1015.75 1015.06 1013.73 1010.21 1008.18 1008.39 1008.80 1009.55 1010.33 1011.15 1011.92 1012.63 1013.22 1013.98 1014.61 1015.11 1015.34 1015.52 1015.35 1015.47 1015.31 1015.05 1014.85 1014.42 1014.16 1013.83 1013.94 1013.96 1013.71 1013.56 1013.63 1013.23 1012.96 1013.27 1013.40 1013.71 1014.07 1014.40 1014.85 1015.28 1015.38 1016.36 1016.97 1017.73 1018.16
Wind_Speed
6 6 2 6 4 5 2 3 1 1 1 3 2 1 3 3 2 3 3 4 7 5 5 7 15 15 15 14 14 13 11 10 9 10 12 12 11 11 12 12 12 11 11 12 11 11 13 13 11
4 3 5 3 6 3 5 3 4 2 1 5 4 1 4 1 2 1 2 7 5 4 5 7 12 14 15 16 16 15 14 12 13 12 13 14 14 13 13 14 14 15 15 14 13 12 11 13 13
2 2 4 5 3 5 4 4 3 2 2 2 3 4 1 3 0 1 2 5 5 6 6 6 14 15 16 16 16 16 16 16 18 16 15 15 16 16 16 15 15 16 16 15 15 15 14 14 10
1 5 5 5 4 5 4 2 2 1 2 5 2 3 0 1 1 2 3 5 7 7 7 9 15 15 16 17 17 16 16 16 17 18 17 17 16 17 17 17 16 16 15 16 15 17 16 14 12
4 3 3 2 4 3 3 2 2 3 1 1 1 3 3 3 2 5 4 6 7 6 6 6 13 15 15 16 16 16 16 17 16 17 17 16 17 17 18 18 18 17 16 15 14 16 16 14 12
5 3 3 3 4 3 3 3 3 2 2 2 2 5 4 1 1 4 5 5 4 5 6 6 10 15 15 15 16 16 15 16 17 16 16 16 16 16 16 18 19 19 18 16 15 15 13 15 12
6 3 4 3 3 4 4 5 3 5 2 3 6 3 2 2 1 5 5 4 5 5 6 6 6 9 12 14 15 14 15 15 16 15 15 13 13 14 17 17 19 20 19 17 16 16 15 14 15
5 5 2 4 4 5 1 2 2 4 2 3 3 4 4 4 5 5 3 3 4 5 5 6 6 6 6 6 13 13 16 17 16 16 15 16 14 13 14 13 16 20 19 17 16 18 17 16 13
3 5 2 4 6 1 1 2 1 0 3 1 1 4 2 5 4 2 3 4 4 4 5 6 6 6 6 7 7 11 14 14 15 11 12 11 7 7 8 10 12 17 20 18 18 19 17 15 12
5 4 7 3 3 2 1 3 1 2 0 3 2 2 3 3 2 2 1 4 4 5 6 4 6 6 7 6 6 6 7 6 6 6 6 5 5 8 8 9 13 14 22 18 18 20 18 12 5
3 5 3 2 2 2 2 2 1 2 5 9 8 7 6 4 4 3 4 5 4 3 4 7 6 6 6 6 5 3 3 4 4 5 5 4 5 5 5 4 6 5 11 7 12 12 7 7 6
1 3 3 1 2 1 2 1 4 7 7 2 8 6 5 6 5 5 6 4 4 5 6 7 7 7 7 5 5 6 4 4 3 4 5 3 3 4 5 4 7 7 6 10 9 6 7 6 7
2 1 2 1 1 3 1 5 6 9 10 4 5 5 6 6 6 5 6 5 5 5 7 7 7 7 7 6 6 5 5 4 5 4 6 4 3 4 4 6 8 8 7 8 9 8 7 6 6
1 3 3 1 1 2 2 3 2 5 3 8 7 8 7 7 7 4 5 5 4 6 7 7 9 8 6 7 8 7 6 6 5 4 6 6 4 4 4 6 7 7 8 5 6 8 7 5 6
0 5 6 2 1 1 2 7 12 5 4 8 9 8 8 9 6 8 4 4 2 5 7 7 9 7 8 9 8 7 8 7 6 5 5 6 5 5 5 5 5 7 10 14 7 5 7 6 4
4 5 6 2 4 1 3 10 4 2 7 10 9 8 8 8 7 6 5 1 4 6 7 7 8 9 10 9 8 7 8 7 7 6 5 6 6 5 5 4 4 3 7 11 9 9 4 6 6
7 3 2 8 5 1 4 8 4 3 6 8 9 8 8 7 7 6 4 0 4 5 7 9 9 9 11 9 7 8 9 7 7 6 5 7 7 6 5 4 3 3 7 8 10 8 8 7 6
2 3 5 6 1 3 5 20 16 7 8 12 10 9 8 8 10 6 4 1 4 5 7 7 7 9 9 7 7 6 6 6 6 6 6 7 5 5 5 4 3 4 7 8 8 10 10 9 9
3 2 5 4 0 3 8 17 21 11 10 13 11 9 9 9 5 5 3 2 5 4 7 7 9 10 7 7 7 6 7 8 6 5 7 6 5 5 5 4 5 8 13 11 12 11 12 10 12
2 2 6 6 1 2 6 23 17 6 6 7 9 9 9 5 5 5 2 2 4 6 7 8 8 9 8 6 6 4 6 7 7 4 4 5 5 5 5 5 5 4 11 13 10 10 10 9 7
2 4 3 5 7 1 8 11 5 1 2 3 3 5 6 10 9 6 2 2 5 7 7 8 8 8 8 9 6 6 7 6 3 2 3 4 5 5 5 5 5 14 11 12 12 13 11 10 6
2 2 2 2 5 4 5 8 8 5 7 2 1 3 6 7 5 4 3 2 5 6 6 7 7 8 8 9 7 9 6 7 5 4 1 3 4 4 6 4 5 12 8 9 11 13 9 12 11
4 3 2 1 1 4 3 4 12 4 4 1 3 4 6 7 8 6 4 1 4 5 6 7 7 7 8 8 8 7 8 7 8 4 5 4 2 2 6 7 11 8 6 7 9 12 10 10 12
6 4 5 3 2 3 3 5 9 3 4 1 2 6 7 7 6 5 3 0 4 5 6 6 7 7 8 8 9 10 9 9 10 8 6 5 5 4 7 8 8 7 8 9 9 11 9 10 10
3 4 3 6 3 7 3 1 13 5 6 4 4 8 8 7 7 5 4 0 4 7 6 6 7 7 7 8 9 10 10 10 10 11 6 6 5 5 7 8 7 6 7 6 7 9 8 10 10
6 6 6 7 3 5 3 8 8 5 2 5 5 4 7 8 7 6 5 2 1 6 6 6 6 6 7 8 9 8 10 6 7 10 8 6 4 6 7 8 8 10 9 9 9 7 8 10 8
5 6 2 6 2 3 4 8 8 5 7 2 4 5 8 8 7 7 5 4 2 3 5 6 6 5 6 7 6 7 8 8 8 10 10 8 8 6 10 9 9 9 9 11 12 8 11 11 9
4 4 3 3 3 4 5 6 8 5 7 7 6 8 8 7 7 6 5 5 3 1 3 6 4 5 5 5 5 5 6 7 6 7 9 10 9 9 10 11 11 11 10 9 11 11 10 12 7
4 3 1 1 4 5 2 7 6 4 4 9 9 8 9 9 8 8 7 5 4 2 2 5 4 4 5 5 5 6 6 7 5 7 7 9 10 10 11 11 11 11 11 10 13 12 10 13 11
4 7 7 5 6 3 2 10 1 3 1 5 7 8 8 8 9 8 8 7 6 4 3 1 3 3 4 4 4 7 6 6 6 7 6 7 12 9 11 11 11 12 11 10 12 12 10 9 11
Wind_Direction
343 1 59 46 53 63 237 256 218 65 109 332 21 325 128 51 130 206 214 18 354 7 5 4 8 10 13 9 2 359 316 295 279 259 249 236 223 211 191 183 180 185 181 172 175 178 171 155 137
355 38 40 80 91 52 273 262 191 170 122 159 74 6 24 102 39 63 39 338 3 22 15 4 4 8 8 9 4 358 344 321 285 265 250 245 233 223 215 197 191 188 187 180 189 183 184 154 148
359 15 87 94 99 177 223 230 179 133 76 179 114 59 90 166 26 78 352 348 57 35 19 4 12 8 5 2 358 356 351 336 344 295 268 255 248 235 222 214 200 197 193 192 196 174 160 160 146
93 7 37 90 219 246 208 224 189 149 119 54 139 95 304 260 95 48 7 33 46 20 14 7 8 1 356 353 353 350 345 343 341 332 340 279 256 248 234 222 209 207 201 196 196 177 171 159 148
41 56 61 121 237 249 252 242 156 177 165 4 10 177 173 300 43 52 40 39 41 11 4 359 4 359 353 348 343 340 339 338 335 329 332 324 340 271 248 234 222 206 205 200 193 179 178 147 173
42 100 70 243 253 255 262 203 158 195 170 205 87 145 227 174 55 9 67 61 37 12 351 0 358 355 350 348 346 338 334 332 331 329 320 314 322 307 304 243 224 213 204 203 188 180 164 154 161
118 91 206 208 247 295 214 150 193 186 178 230 138 145 277 265 91 86 88 47 17 13 15 0 352 349 346 338 334 331 329 324 321 322 322 317 306 296 287 283 229 217 206 202 188 169 156 157 158
109 91 185 234 214 258 188 130 118 179 224 107 132 211 243 222 126 114 98 27 1 8 15 0 354 345 336 323 320 316 331 322 321 323 322 320 300 283 283 289 237 217 210 203 187 164 160 157 158
121 64 249 242 176 233 280 193 237 137 102 80 185 167 184 127 123 88 14 342 340 358 358 350 340 329 328 318 320 327 319 312 313 314 316 310 301 290 279 280 248 219 213 204 181 161 159 156 153
93 134 226 207 191 220 212 195 224 23 256 261 244 215 126 112 103 101 2 300 303 318 330 316 322 320 318 311 302 292 298 288 285 290 288 296 303 300 290 286 245 214 221 194 180 163 157 143 139
151 200 217 234 201 198 215 250 179 160 255 221 208 197 186 179 180 185 227 238 278 310 296 313 311 296 291 288 286 270 263 277 277 271 279 287 298 291 294 298 239 203 184 182 193 160 144 140 137
219 223 199 175 195 163 231 336 276 194 226 220 215 174 165 197 218 224 243 272 303 310 297 303 297 298 291 287 285 279 270 270 273 265 269 276 288 288 283 271 258 211 170 186 175 142 139 134 136
190 280 223 255 224 238 298 248 243 257 243 237 171 166 188 208 231 243 249 282 293 315 301 300 299 291 292 290 286 279 274 271 259 264 260 247 262 273 281 281 274 190 173 166 170 140 136 130 128
276 275 281 267 248 255 253 269 66 255 257 185 184 206 214 214 222 238 244 275 320 310 301 300 298 284 288 294 294 296 281 273 253 243 246 256 232 258 267 279 294 161 145 119 144 140 139 136 130
202 351 333 222 180 272 86 278 233 202 149 198 209 217 224 226 230 233 242 280 325 294 300 302 301 316 318 303 300 304 294 296 289 277 236 242 239 241 258 270 289 183 152 131 119 134 121 116 107
38 55 0 2 133 49 92 272 272 189 170 221 220 226 230 236 230 237 235 256 325 311 316 308 314 321 311 307 302 296 293 289 281 272 255 240 235 236 244 263 262 291 151 149 160 142 124 127 116
16 274 248 315 196 86 168 274 259 159 192 231 227 226 227 245 248 237 194 122 302 320 318 316 317 306 308 305 299 298 296 286 279 271 254 242 239 216 230 235 276 305 158 154 150 143 131 126 104
245 265 260 254 292 227 256 261 260 235 201 227 225 224 223 232 237 215 189 341 326 323 315 304 299 302 308 314 312 305 296 284 275 264 254 243 233 220 209 224 235 259 202 162 143 144 129 125 111
111 219 263 270 321 272 243 272 276 258 224 235 231 216 217 223 239 182 169 346 336 324 322 315 314 321 327 331 332 327 312 307 287 246 244 240 230 223 198 216 221 225 170 155 150 136 128 119 119
214 296 278 282 303 249 321 290 284 259 234 221 233 215 205 181 188 194 178 347 336 315 322 317 318 326 327 326 317 288 299 291 277 260 243 229 229 211 197 217 232 221 120 117 110 139 130 124 144
211 185 243 247 324 246 311 291 333 290 296 287 240 206 189 184 186 193 177 329 324 325 328 320 324 323 324 333 318 319 306 308 287 240 234 218 214 197 191 214 228 131 131 140 152 144 146 142 131
276 178 161 332 18 271 10 281 303 312 307 288 243 205 186 159 160 162 135 315 310 315 320 317 328 329 331 335 343 338 321 323 310 297 160 162 186 176 189 198 194 133 135 158 150 154 150 148 144
219 103 102 68 51 338 355 66 269 334 344 319 206 201 175 164 166 167 166 268 304 333 331 323 333 324 334 348 359 346 345 337 326 15 60 88 149 213 172 173 126 115 119 122 137 150 154 165 153
139 78 50 56 55 343 223 129 284 257 214 203 196 204 183 166 163 165 159 7 340 340 343 338 351 331 343 1 9 356 356 358 355 358 55 56 42 83 93 98 108 114 134 135 137 156 156 153 144
89 86 326 345 9 226 150 75 245 250 229 203 189 202 190 174 170 189 192 123 8 335 354 344 358 341 346 13 15 3 359 11 16 354 11 44 72 49 61 82 89 94 92 93 128 145 122 136 135
181 169 171 212 221 284 109 236 253 211 232 255 244 187 169 178 182 197 197 174 51 323 358 350 3 337 351 17 16 13 12 17 25 13 11 29 39 71 79 86 89 94 95 94 95 96 111 112 108
188 205 172 107 48 38 232 280 286 256 265 227 195 158 191 189 185 197 193 187 181 320 353 344 1 341 352 23 29 17 29 25 41 39 25 19 27 54 66 69 79 82 93 109 106 102 114 101 103
178 171 94 344 169 254 277 274 247 256 235 216 213 207 210 191 185 193 199 193 216 227 344 334 9 344 356 32 41 41 32 41 38 66 56 40 36 51 68 72 74 77 78 80 95 98 98 103 91
146 213 83 148 171 180 261 262 213 244 212 205 220 209 203 194 193 191 196 199 197 219 47 325 359 355 14 35 40 59 39 46 37 63 82 86 65 52 64 76 80 81 81 84 90 81 94 98 98
161 192 177 154 219 236 140 274 245 228 314 200 229 214 204 198 193 188 185 180 190 211 150 336 335 31 20 22 50 68 52 47 57 52 55 87 100 81 85 78 75 72 70 76 81 87 76 87 93